Regional Weather Roundup
Issued by NWS

Home | Current Version | Previous Version | Text Only | Print | Product List | Glossary On
Versions: 1 2 3 4 5 6 7 8 9 10 11 12 13 14 15 16 17 18 19 20 21 22 23 24 25 26 27 28 29 30 31 32 33 34 35 36 37 38 39 40 41 42 43 44 45 46 47 48 49 50
000
ASUS43 KIND 251209
RWRIN

WEATHER ROUNDUP FOR INDIANA
NATIONAL WEATHER SERVICE INDIANAPOLIS IN
800 AM EDT MON SEP 25 2017

NOTE: "FAIR" INDICATES FEW OR NO CLOUDS BELOW 12,000 FEET WITH NO
SIGNIFICANT WEATHER AND/OR OBSTRUCTIONS TO VISIBILITY.

* - STATION DOES NOT REPORT WEATHER SUCH AS PRECIPITATION OR FOG.

+ - STATION NOT QUALITY CONTROLLED BY THE NATIONAL WEATHER SERVICE.
    USE DATA WITH CAUTION...ESPECIALLY DEWPOINT AND RELATIVE
    HUMIDITY OBSERVATIONS.

INZ001>003-010>013-019-020-251300-
NORTHWEST INDIANA

CITY           SKY/WX    TMP DP  RH WIND       PRES   REMARKS
GARY /AIRPORT/ PTCLDY    66  57  72 SE6       30.03R
KNOX *+        CLEAR     54  54 100 CALM      30.04S
LA PORTE +     CLEAR     58  55  91 CALM      30.05S
6HR MIN TEMP:  58; 6HR MAX TEMP:  63;

MICHIGAN CITY+ CLEAR     59  59 100 CALM      30.05R
MONTICELLO +   CLEAR     59  58  96 CALM      30.04R
6HR MIN TEMP:  59; 6HR MAX TEMP:  66;

RENSSELAER +   CLEAR     59  54  82 CALM      30.05R
VALPARAISO     CLEAR     60  57  89 CALM      30.05R
6HR MIN TEMP:  59; 6HR MAX TEMP:  67;


$$

LMZ046-743>745-251300-
SOUTHERN LAKE MICHIGAN

STATION/POSITION TIME  TEMP    WIND        PRES    WAVE
                       AIR SEA DIR/SP/G            HT
                 (UTC) (F)     (DEG/KT/KT) (MB)    (FT)
BURNS HARBOR     1140   70     160/  7/ 11 1017.3R
MICHIGAN CITY    1140   68     140/  9/ 10   N/A
5NW MICH CITY    1200   69 72  170/  8/ 10   N/A     1

$$

INZ004-005-014>016-021>024-251300-
NORTH CENTRAL INDIANA

CITY           SKY/WX    TMP DP  RH WIND       PRES   REMARKS
ELKHART        CLEAR     61  59  94 CALM      30.06R FOG
GOSHEN         PTCLDY    59  56  89 CALM      30.06R FOG
6HR MIN TEMP:  58; 6HR MAX TEMP:  64;

LOGANSPORT +   PTCLDY    57  55  94 CALM      30.06R
PERU/GRISSOM   CLEAR     61  56  84 E5        30.05R
6HR MIN TEMP:  58; 6HR MAX TEMP:  67;

SOUTH BEND     CLEAR     63  59  87 E3        30.06R
6HR MIN TEMP:  60; 6HR MAX TEMP:  66;

WARSAW +       PTCLDY    57  57 100 CALM      30.06S

$$

INZ006>009-017-018-025>027-251300-
NORTHEAST INDIANA

CITY           SKY/WX    TMP DP  RH WIND       PRES   REMARKS
AUBURN +       FOG       59  59 100 CALM      30.08R VSB 1/4
FORT WAYNE     PTCLDY    60  56  86 CALM      30.07R
6HR MIN TEMP:  60; 6HR MAX TEMP:  65;

HUNTINGTON +   PTCLDY    58  56  96 CALM      30.06S
6HR MIN TEMP:  57; 6HR MAX TEMP:  63;

KENDALLVILLE +   N/A     60  60 100 CALM      30.08R FOG

$$

INZ028-029-035-036-043>045-051>053-251300-
WEST CENTRAL INDIANA

CITY           SKY/WX    TMP DP  RH WIND       PRES   REMARKS
CRAWFORDSVL +  PTCLDY    57  57 100 CALM      30.05
GREENCASTLE +  PTCLDY    61  55  82 CALM      30.06R
LAFAYETTE      PTCLDY    61  59  93 CALM      30.04R
6HR MIN TEMP:  59; 6HR MAX TEMP:  65;

TERRE HAUTE    PTCLDY    62  58  86 CALM      30.04R
6HR MIN TEMP:  60; 6HR MAX TEMP:  62;


$$

INZ030>032-037>040-046>048-054>057-064-065-251300-
CENTRAL INDIANA

CITY           SKY/WX    TMP DP  RH WIND       PRES   REMARKS
CP ATTERBURY + PTCLDY    55  54  94 CALM      30.06S
COLUMBUS       CLEAR     57  57 100 CALM      30.05S
FISHERS *+     CLEAR     57  57 100 CALM      30.06
FRANKFORT +    CLOUDY    60  58  92 SE3       30.07R
6HR MIN TEMP:  58; 6HR MAX TEMP:  66;

GREENWOOD *+   CLEAR     63  60  92 CALM      30.06R
INDIANAPOLIS   MOCLDY    67  57  70 CALM      30.05R
6HR MIN TEMP:  64; 6HR MAX TEMP:  71;

-EAGLE CREEK   CLEAR     62  56  80 CALM      30.05R
6HR MIN TEMP:  60; 6HR MAX TEMP:  65;

KOKOMO +       CLEAR     58  55  90 E5        30.07R
6HR MIN TEMP:  57; 6HR MAX TEMP:  64;

MARION +       PTCLDY    57  55  94 CALM      30.07R
MT COMFORT *+  PTCLDY    55  54  94 CALM      30.06R
SHELBYVILLE    CLEAR     60  55  83 E6        30.05R
6HR MIN TEMP:  59; 6HR MAX TEMP:  64;

ZIONSVILLE +   CLEAR     56  55  98 CALM      30.07R
6HR MIN TEMP:  56; 6HR MAX TEMP:  60;


$$

INZ033-034-041-042-049-050-058-059-251300-
EAST CENTRAL INDIANA

CITY           SKY/WX    TMP DP  RH WIND       PRES   REMARKS
MUNCIE         PTCLDY    60  56  86 CALM      30.07R
6HR MIN TEMP:  57; 6HR MAX TEMP:  61;

RICHMOND +     CLEAR     59  55  88 CALM      30.08S FOG

$$

INZ060-061-067>069-081>083-085>088-251300-
SOUTHWEST INDIANA

CITY           SKY/WX    TMP DP  RH WIND       PRES   REMARKS
EVANSVILLE     CLEAR     67  65  93 CALM      30.03R
6HR MIN TEMP:  66; 6HR MAX TEMP:  71;

HUNTINGBURG +  PTCLDY    65  63  93 CALM      30.04
6HR MIN TEMP:  64; 6HR MAX TEMP:  69;

WASHINGTON +   PTCLDY    62  60  94 CALM      30.03S
6HR MIN TEMP:  61; 6HR MAX TEMP:  64;


$$

INZ062-063-066-070>080-084-089>092-251300-
SOUTH CENTRAL AND SOUTHEAST INDIANA

CITY           SKY/WX    TMP DP  RH WIND       PRES   REMARKS
BEDFORD +      PTCLDY    59  57  94 CALM      30.05R
BLOOMINGTON    PTCLDY    60  56  86 CALM      30.05R
6HR MIN TEMP:  58; 6HR MAX TEMP:  62;

MADISON *+     CLEAR     61  59  94 CALM      30.07S
NORTH VERNON + CLEAR     57  57 100 NE5       30.06R
SEYMOUR +      FOG       59  59 100 CALM      30.05R VSB 1

$$




USA.gov is the U.S. government's official web portal to all federal, state and local government web resources and services.